Dewpoint
-2 -3 -3 -3 -1 -1 1 0 1 1 -1 1 4 6 9 13 15 15 15 16 15 15 13 10 10 13 14 14 14 14 13 14 14 14 13 13 13 14 14 14 14 13 13 12
-2 -2 -3 -4 -1 -1 -1 -0 0 -1 2 4 4 6 8 11 13 15 15 15 14 13 9 11 13 13 14 11 9 9 13 13 13 12 14 15 15 15 15 15 14 13 13 13
-0 -2 -3 -4 -2 -1 -1 -0 -0 -1 -2 5 7 4 7 9 12 13 14 14 13 12 9 11 10 13 13 9 9 11 14 12 13 14 15 16 16 15 14 13 11 11 11 11
-0 -2 -2 -1 -1 -1 1 -2 -2 -1 -1 -3 1 -3 4 3 7 9 11 13 13 12 9 10 11 10 9 8 12 9 9 10 12 14 14 14 15 14 11 10 11 12 12 11
-0 -0 -0 0 -1 -2 0 -3 -2 -2 -2 -0 0 -2 0 5 7 6 9 11 11 12 9 8 9 10 10 10 8 9 9 10 12 12 14 15 12 10 11 12 12 11 11 11
-2 -2 -2 -2 -2 -2 -3 -2 -3 -1 -1 -1 0 -1 -3 2 7 7 7 9 11 12 10 8 11 10 10 10 8 10 9 11 12 12 14 11 10 10 11 11 12 12 12 12
0 -1 -3 -3 -2 -2 -2 0 2 -1 -0 -2 2 3 2 4 6 8 8 8 11 11 11 9 10 10 10 10 10 9 10 11 10 12 10 10 9 9 11 12 12 12 13 12
-1 -5 -1 -2 -1 -2 -1 0 1 1 -1 -2 3 3 0 8 11 12 11 10 10 11 12 9 11 11 10 11 11 10 11 11 13 12 11 10 9 9 10 10 10 12 13 13
1 -0 -1 -2 -2 -4 -2 -0 -3 1 1 -0 -1 0 3 10 11 13 11 11 11 12 13 10 13 11 12 11 12 13 11 12 12 11 10 10 9 10 10 10 10 10 13 12
-0 -1 -3 -3 -3 -4 -2 -3 -0 -1 5 3 1 4 2 8 10 12 13 12 12 13 14 14 13 13 13 13 13 13 14 13 11 11 10 10 10 10 11 11 11 10 12 13
-1 -1 -5 -3 -2 -1 -2 -2 -1 -1 0 1 1 -0 5 7 8 11 13 12 12 11 14 16 14 13 13 13 13 14 13 11 10 11 10 10 10 11 12 11 11 11 11 12
-1 0 0 -4 -4 -3 -3 -1 1 0 4 2 2 -1 -1 6 8 11 13 13 11 10 9 14 14 12 13 13 14 13 9 10 10 11 10 10 10 12 13 12 11 11 10 11
-0 1 0 -1 -4 -2 -1 -1 -1 2 3 6 2 -0 5 9 9 11 13 13 11 10 7 9 12 12 13 13 12 10 11 11 11 11 10 10 11 12 12 12 11 11 10 11
-1 3 3 -5 -3 -1 1 -1 -2 1 2 3 1 2 2 6 10 11 12 13 12 10 9 12 11 9 9 11 11 10 12 11 11 11 11 11 12 11 11 11 11 11 11 11
2 5 3 0 -2 -4 -4 0 -1 2 3 1 1 3 3 3 8 9 11 12 12 12 10 15 12 9 7 11 12 12 13 12 12 12 11 11 11 12 11 10 11 11 11 11
5 5 5 3 3 0 1 -1 -1 1 2 2 2 4 3 6 9 10 11 13 14 14 12 14 13 8 9 12 12 13 13 13 13 13 12 12 11 12 11 10 11 11 11 11
8 8 7 3 5 5 5 4 4 4 3 3 6 5 8 9 9 10 11 13 15 14 14 12 13 11 11 13 13 14 14 14 13 14 12 12 12 12 11 10 11 11 11 10
9 10 7 3 7 6 3 4 4 5 7 7 8 9 10 11 12 12 12 13 14 14 14 14 13 12 13 14 14 14 14 13 13 13 14 13 12 12 11 11 11 11 11 10
6 9 9 7 5 4 5 11 11 9 7 13 11 9 11 12 11 13 11 12 13 13 14 13 13 13 13 14 14 14 14 14 14 13 14 15 14 13 12 11 11 11 11 10
6 8 7 10 6 4 4 10 12 12 7 12 12 10 11 11 10 12 13 11 10 11 12 13 13 12 12 14 15 15 15 15 15 14 14 14 15 13 13 12 12 12 11 11
5 7 4 8 9 8 7 11 12 10 7 13 12 11 12 12 12 12 13 12 12 12 12 12 13 13 14 14 14 13 13 12 11 10 11 14 14 14 14 13 13 12 12 11
5 4 3 6 7 7 11 12 11 13 14 13 13 13 12 11 12 13 13 12 12 12 13 13 13 13 13 13 11 10 9 8 8 8 10 13 13 13 14 13 13 12 12 11
8 7 3 5 2 11 12 13 13 13 14 13 12 12 11 11 12 12 12 12 12 13 13 12 9 12 12 11 9 9 10 10 11 11 12 13 13 13 13 13 13 12 12 11
10 11 12 11 11 11 11 12 12 13 13 13 13 12 12 12 11 12 12 12 12 12 11 11 11 11 9 9 9 10 10 11 11 11 11 12 12 12 12 11 11 11 10 10
8 10 11 11 11 11 11 11 12 13 13 13 12 12 12 12 12 11 11 11 10 10 10 11 10 9 8 9 9 10 11 11 11 11 11 11 11 11 11 9 9 9 9 9
7 10 11 11 10 11 10 11 11 12 13 12 12 11 11 11 11 10 9 9 9 10 11 9 8 8 8 9 10 11 11 11 10 11 10 10 10 9 9 9 9 8 8 8
Wind_Speed
2 4 7 5 3 4 2 3 5 4 4 4 6 7 6 7 8 9 13 14 10 7 8 8 13 14 15 17 16 14 14 12 11 9 8 12 12 12 15 16 18 21 21 22
3 8 6 3 4 3 2 3 5 6 2 4 5 7 4 5 7 12 15 13 9 9 6 8 11 19 18 14 7 11 16 12 11 8 8 11 13 15 16 18 19 19 21 24
6 2 2 9 5 5 5 6 2 4 5 1 4 4 4 3 8 10 12 10 12 11 7 13 7 13 16 18 17 10 12 10 8 7 7 11 13 16 19 20 19 18 17 18
6 5 5 3 4 7 3 6 6 6 4 2 2 3 4 4 10 7 12 16 17 17 12 12 15 12 6 12 22 11 11 13 6 6 8 9 14 19 19 20 19 17 16 16
3 5 8 7 6 11 2 2 3 2 2 2 4 4 2 4 4 3 10 19 21 18 15 11 12 14 13 11 17 8 8 7 5 5 9 12 14 15 17 16 14 12 12 12
4 2 3 3 4 8 2 1 3 2 0 4 1 3 4 4 1 6 2 12 17 19 18 12 11 11 12 11 16 7 4 3 3 7 9 11 9 8 9 11 11 11 12 11
4 13 5 7 5 3 4 2 2 3 4 5 4 2 5 5 4 9 9 8 13 14 16 17 10 10 10 13 8 14 10 7 7 6 7 7 4 7 8 10 12 12 11 10
4 3 7 6 14 6 9 7 4 3 3 1 3 4 2 4 8 12 15 8 11 12 13 14 8 9 8 10 11 10 11 9 6 4 4 3 3 7 9 11 14 15 14 12
4 3 2 5 3 10 5 5 2 5 1 3 1 3 9 5 9 8 8 8 10 8 10 10 13 9 9 11 12 11 9 6 4 3 5 3 2 6 10 11 13 14 13 12
4 3 1 2 6 5 4 9 3 1 4 5 2 4 5 5 11 10 9 10 7 10 11 12 13 15 14 13 13 10 8 5 4 6 4 3 3 7 9 10 12 12 12 11
5 4 2 3 3 6 4 3 4 2 2 4 3 3 4 9 10 10 10 13 9 11 13 13 16 17 15 13 9 10 7 6 7 5 3 2 3 8 8 9 10 11 12 12
7 3 5 10 1 1 1 2 5 4 5 1 3 5 4 7 9 10 12 12 8 8 14 14 18 18 19 13 11 8 7 7 7 5 3 2 4 5 7 8 9 10 12 12
9 4 3 3 4 4 5 5 4 3 1 6 4 5 2 6 7 11 14 14 11 8 14 13 18 17 16 13 7 9 7 7 8 6 3 1 2 3 5 7 7 8 11 12
11 3 5 6 1 3 4 5 6 5 4 5 6 7 7 7 9 13 17 15 13 9 12 19 21 21 12 9 11 13 8 9 8 7 4 3 2 2 4 4 5 6 8 10
4 3 4 7 8 7 6 7 11 8 2 6 1 6 7 6 8 15 18 15 14 14 15 17 22 20 19 15 14 13 10 11 9 7 7 6 3 3 3 3 3 4 6 8
0 2 3 2 2 5 5 10 12 10 4 9 4 7 4 5 3 11 16 17 17 16 17 17 20 16 17 17 18 16 14 11 11 10 11 9 7 5 3 1 2 2 5 7
1 3 3 4 2 2 4 7 8 5 7 5 6 2 6 5 8 6 10 11 10 12 15 16 16 19 17 18 19 18 16 16 14 14 14 12 11 8 5 3 2 3 4 6
2 2 1 3 2 8 2 3 3 4 1 2 4 5 7 6 5 7 2 11 10 11 13 16 16 15 17 18 17 19 19 20 18 18 18 16 15 14 9 7 4 4 4 4
8 2 2 4 8 3 4 1 2 2 5 2 4 3 2 4 7 7 4 6 10 10 13 16 16 15 14 15 17 16 18 19 18 19 21 22 20 20 14 11 8 6 6 4
5 2 6 3 8 12 3 4 2 4 5 1 4 4 6 9 6 3 4 7 10 11 16 17 16 14 13 13 12 8 9 12 15 16 18 21 25 21 18 14 11 8 6 6
6 4 12 7 6 3 2 4 2 8 1 3 2 5 8 5 2 13 10 12 13 15 16 16 14 12 9 7 8 8 11 12 11 12 13 14 21 23 21 17 14 11 8 8
9 8 6 4 7 10 2 3 5 3 4 2 2 5 9 13 16 16 14 15 17 19 17 13 9 5 6 6 5 6 8 8 8 7 6 11 18 21 23 19 16 12 10 10
4 3 4 6 4 2 1 1 3 5 6 4 4 5 10 16 17 17 18 16 13 11 14 11 6 5 5 4 4 5 6 3 3 2 3 7 12 19 21 20 18 17 13 12
2 2 2 3 4 3 3 4 4 4 6 5 6 8 10 9 11 11 12 14 17 17 10 9 7 7 5 4 5 4 2 1 0 2 1 4 5 11 13 15 12 11 10 10
2 3 2 3 4 4 8 6 3 3 3 2 5 8 8 7 10 11 12 12 10 9 7 8 6 6 7 5 4 4 3 3 2 2 3 4 5 7 9 10 10 11 10 8
1 3 2 1 8 4 2 2 4 2 2 1 6 5 5 8 9 10 7 4 4 8 9 9 9 8 8 7 6 6 7 8 6 6 7 8 10 10 9 8 8 9 8 8
Wind_Direction
83 216 230 243 183 132 99 303 297 273 302 278 314 303 318 221 219 216 217 212 193 167 185 231 230 209 203 206 206 209 217 205 199 223 261 283 285 281 282 280 280 276 273 266
165 249 241 152 164 187 208 258 274 303 12 273 315 304 283 250 238 231 231 220 200 211 230 219 217 206 188 184 202 248 218 203 203 229 257 278 285 291 293 290 285 274 266 262
218 354 99 171 158 195 221 238 233 301 327 37 316 283 277 240 254 238 237 221 209 212 209 199 182 192 211 221 214 205 191 193 214 239 272 286 290 301 306 305 300 290 282 268
242 225 180 166 225 201 229 215 264 292 303 290 299 290 265 265 281 244 236 221 211 205 210 199 202 200 183 187 171 181 215 219 250 261 291 299 313 313 313 311 307 303 292 273
213 192 196 208 232 187 125 196 320 344 198 260 190 252 255 285 324 317 217 221 218 205 213 217 227 223 214 207 187 158 173 174 228 289 311 317 317 320 321 320 318 306 307 290
256 232 219 204 163 191 98 160 68 65 221 252 188 274 246 255 259 299 341 232 221 208 211 223 247 228 220 209 207 197 157 175 265 307 306 318 323 334 350 354 348 337 320 307
255 247 218 200 232 201 176 188 248 205 202 250 75 235 274 268 265 267 292 286 228 206 201 213 236 220 220 212 206 219 210 217 239 265 310 312 330 351 7 14 6 0 348 334
221 222 183 176 218 219 194 202 217 241 212 32 129 237 250 286 287 280 276 260 217 197 196 203 228 210 214 212 208 205 193 208 227 278 282 278 360 24 17 12 7 3 1 353
190 256 280 224 169 206 150 195 71 117 72 252 252 264 266 258 264 273 260 220 203 190 187 187 184 186 179 175 168 183 190 203 212 234 251 234 13 8 4 4 3 0 4 2
182 260 158 334 154 66 241 141 166 137 189 227 197 270 263 255 248 233 225 226 165 129 148 167 162 158 158 162 170 185 180 201 211 208 220 225 339 355 354 355 360 4 11 10
158 234 204 283 187 216 157 181 68 116 292 240 234 232 214 245 250 234 206 214 155 138 138 146 150 152 146 153 167 178 189 194 192 199 204 224 332 349 352 355 2 14 16 13
182 164 218 239 44 46 192 229 186 239 190 212 294 253 177 248 266 224 210 181 149 136 150 138 149 148 143 150 166 180 186 191 191 196 199 223 335 353 348 354 12 27 28 28
173 203 227 196 165 143 226 201 195 122 149 194 244 265 179 262 249 211 203 183 161 152 174 159 145 148 153 150 153 182 183 188 185 186 182 173 308 342 343 356 17 29 37 43
154 158 233 263 43 110 173 188 192 226 176 160 230 284 281 262 247 210 195 187 179 173 161 165 158 162 182 192 186 187 188 185 183 181 160 166 247 314 340 2 24 42 44 51
182 222 207 265 246 240 231 180 180 215 215 236 220 216 268 269 262 228 195 185 189 195 181 178 176 178 180 190 195 192 198 199 186 179 169 177 209 255 318 22 55 65 57 57
118 185 171 244 267 187 232 241 231 221 193 263 264 264 288 314 320 188 192 193 194 189 191 188 187 187 188 196 207 207 207 213 206 199 190 195 198 223 261 109 117 105 89 81
288 167 179 233 342 197 229 231 210 210 204 196 209 304 351 320 325 297 204 173 189 196 199 196 188 197 203 206 217 223 223 227 224 217 209 216 219 219 230 183 175 150 127 101
288 134 234 219 200 227 88 342 257 248 102 232 295 342 338 325 53 48 59 180 171 185 185 189 191 197 216 222 226 231 234 225 232 231 229 229 228 227 223 209 187 178 159 126
216 205 195 233 219 304 153 74 168 201 190 12 294 290 49 125 137 58 67 160 168 181 189 193 193 206 219 234 240 240 233 235 234 233 238 241 228 227 221 220 205 195 185 173
164 251 237 170 236 235 189 132 314 183 224 184 275 256 176 159 198 126 129 165 165 173 180 184 188 199 213 226 240 243 246 242 239 239 240 233 233 223 224 223 216 201 196 192
189 199 216 205 234 240 152 332 151 211 219 345 255 213 196 190 152 157 164 161 161 160 162 165 171 184 191 216 233 235 253 254 257 254 249 233 230 220 220 219 214 209 202 202
190 194 202 195 223 236 71 140 221 359 320 293 226 192 168 161 154 162 177 174 170 165 157 159 170 203 194 231 242 248 254 261 267 267 251 225 225 223 218 217 214 207 202 197
209 277 217 224 206 81 165 206 260 265 273 263 229 197 175 162 163 167 174 168 158 160 166 163 158 234 215 231 226 245 252 252 254 267 233 230 231 219 211 216 205 203 197 205
185 192 241 220 169 242 262 267 264 262 251 279 230 196 187 192 180 166 163 166 176 177 204 194 179 167 170 181 187 207 220 233 186 133 178 221 223 199 205 199 189 215 194 173
8 187 175 270 246 257 258 253 272 281 281 240 199 185 194 187 167 162 164 175 206 214 198 190 180 159 160 159 163 150 137 125 123 151 163 178 189 190 190 174 166 163 159 150
321 15 271 25 347 332 34 272 250 297 339 129 161 161 194 186 182 179 211 267 182 168 172 174 162 160 149 144 137 134 135 117 110 134 138 129 128 126 132 135 145 146 148 153
Height
1518 1518 1520 1518 1521 1522 1524 1526 1527 1518 1516 1516 1511 1509 1507 1509 1512 1514 1513 1515 1521 1526 1528 1527 1527 1527 1529 1531 1533 1538 1539 1539 1541 1544 1547 1548 1548 1548 1549 1549 1549 1549 1549 1549
1518 1518 1515 1520 1522 1524 1526 1526 1522 1515 1516 1515 1511 1508 1506 1508 1509 1511 1511 1515 1520 1520 1522 1522 1523 1525 1527 1529 1532 1532 1535 1537 1539 1541 1543 1544 1545 1546 1545 1545 1544 1543 1543 1542
1517 1515 1514 1516 1522 1525 1524 1524 1523 1523 1517 1516 1515 1509 1506 1506 1506 1508 1511 1514 1515 1517 1520 1521 1522 1523 1526 1526 1527 1529 1533 1534 1536 1537 1540 1541 1542 1542 1541 1540 1539 1537 1536 1536
1516 1512 1515 1519 1521 1520 1524 1517 1518 1519 1520 1524 1520 1524 1509 1504 1502 1505 1506 1507 1510 1513 1516 1518 1521 1522 1523 1524 1527 1527 1532 1533 1534 1536 1538 1539 1539 1539 1537 1535 1534 1531 1529 1529
1512 1511 1514 1518 1516 1514 1516 1516 1517 1517 1519 1522 1521 1519 1500 1505 1499 1496 1500 1500 1502 1509 1511 1514 1517 1519 1523 1524 1524 1527 1527 1529 1532 1535 1536 1537 1537 1536 1534 1532 1530 1528 1526 1525
1509 1509 1509 1508 1510 1511 1512 1516 1520 1522 1520 1527 1519 1520 1506 1499 1499 1495 1497 1496 1499 1504 1509 1513 1513 1514 1517 1522 1525 1525 1526 1527 1531 1534 1537 1537 1537 1535 1533 1531 1529 1527 1525 1523
1511 1505 1505 1507 1511 1511 1513 1516 1528 1533 1532 1528 1526 1526 1504 1496 1499 1497 1496 1495 1497 1502 1506 1510 1511 1513 1515 1519 1523 1525 1526 1529 1532 1534 1536 1537 1537 1536 1534 1530 1529 1526 1524 1521
1514 1513 1504 1502 1502 1505 1509 1509 1520 1542 1536 1525 1527 1521 1498 1499 1499 1497 1494 1494 1495 1502 1505 1509 1511 1513 1514 1518 1522 1525 1527 1529 1531 1533 1536 1536 1536 1535 1534 1531 1528 1526 1523 1520
1513 1510 1498 1499 1499 1500 1512 1513 1508 1525 1539 1528 1515 1509 1495 1497 1494 1494 1492 1493 1497 1502 1504 1508 1510 1512 1515 1518 1522 1526 1528 1529 1531 1533 1536 1537 1536 1535 1534 1532 1529 1526 1524 1521
1502 1512 1499 1496 1498 1503 1501 1505 1514 1516 1536 1535 1520 1521 1504 1494 1489 1490 1492 1495 1500 1502 1505 1507 1510 1513 1516 1519 1523 1526 1528 1531 1532 1533 1535 1537 1536 1535 1534 1533 1530 1527 1524 1522
1500 1504 1502 1498 1498 1498 1505 1504 1511 1510 1517 1515 1521 1507 1487 1487 1483 1484 1492 1495 1502 1504 1506 1507 1510 1514 1516 1520 1523 1527 1529 1531 1533 1534 1535 1536 1536 1536 1535 1533 1530 1528 1525 1522
1497 1502 1508 1498 1496 1497 1497 1499 1501 1505 1520 1520 1514 1501 1484 1485 1484 1487 1490 1497 1500 1504 1507 1509 1511 1513 1512 1519 1523 1527 1529 1531 1532 1534 1535 1534 1535 1536 1536 1534 1531 1528 1526 1524
1496 1501 1506 1501 1497 1498 1497 1497 1498 1506 1506 1514 1511 1497 1483 1483 1482 1485 1488 1493 1498 1501 1504 1508 1510 1513 1517 1517 1520 1526 1529 1530 1531 1533 1533 1533 1535 1535 1535 1533 1531 1530 1527 1525
1491 1499 1496 1495 1491 1488 1496 1497 1499 1496 1500 1503 1497 1489 1477 1478 1479 1482 1488 1492 1496 1498 1501 1505 1508 1510 1512 1516 1521 1525 1527 1529 1531 1531 1532 1533 1535 1536 1535 1533 1531 1530 1529 1527
1489 1494 1497 1490 1490 1490 1485 1487 1494 1494 1489 1492 1483 1487 1475 1473 1475 1476 1484 1490 1494 1497 1500 1504 1507 1509 1512 1517 1521 1524 1527 1528 1529 1530 1531 1534 1534 1536 1535 1532 1531 1530 1530 1528
1492 1491 1494 1490 1487 1487 1489 1484 1485 1487 1488 1489 1486 1484 1473 1474 1475 1475 1478 1487 1491 1496 1500 1505 1507 1511 1513 1517 1521 1524 1525 1526 1527 1530 1531 1532 1532 1534 1534 1532 1531 1530 1530 1529
1491 1490 1492 1493 1491 1487 1493 1481 1482 1481 1479 1477 1485 1474 1477 1474 1477 1481 1482 1484 1490 1495 1501 1505 1507 1511 1514 1517 1520 1523 1525 1526 1527 1529 1530 1530 1531 1532 1532 1532 1533 1532 1531 1528
1493 1493 1495 1490 1494 1506 1480 1480 1479 1479 1479 1478 1477 1479 1481 1480 1480 1479 1481 1484 1488 1492 1497 1501 1505 1508 1512 1516 1518 1520 1522 1524 1525 1526 1528 1529 1530 1531 1532 1532 1532 1532 1532 1530
1494 1490 1493 1495 1491 1489 1481 1482 1481 1480 1480 1481 1480 1479 1480 1480 1480 1482 1482 1484 1486 1489 1494 1499 1502 1505 1509 1513 1515 1518 1518 1519 1521 1522 1524 1525 1527 1528 1530 1531 1532 1532 1531 1531
1491 1492 1487 1498 1495 1498 1475 1483 1485 1485 1481 1481 1480 1478 1477 1478 1476 1481 1483 1484 1486 1488 1492 1496 1499 1504 1507 1510 1514 1517 1519 1518 1518 1517 1518 1520 1521 1526 1528 1529 1530 1530 1530 1531
1487 1490 1487 1488 1489 1482 1481 1484 1485 1488 1481 1478 1478 1477 1478 1474 1477 1480 1483 1485 1486 1489 1492 1495 1498 1502 1505 1511 1513 1513 1516 1517 1516 1515 1515 1516 1519 1521 1523 1525 1527 1527 1529 1530
1479 1484 1485 1489 1489 1493 1483 1483 1484 1483 1480 1480 1479 1478 1476 1477 1477 1479 1482 1485 1488 1490 1491 1495 1500 1506 1503 1508 1509 1512 1513 1514 1513 1512 1512 1515 1517 1519 1519 1522 1523 1525 1527 1528
1483 1480 1474 1478 1474 1480 1482 1482 1483 1483 1482 1482 1481 1481 1480 1480 1480 1481 1484 1489 1492 1493 1494 1491 1487 1498 1502 1502 1505 1509 1512 1511 1510 1510 1513 1515 1516 1516 1516 1519 1520 1524 1524 1526
1482 1484 1480 1480 1479 1479 1480 1481 1481 1481 1481 1480 1480 1481 1484 1484 1484 1487 1489 1491 1492 1493 1492 1494 1490 1490 1496 1501 1503 1506 1508 1509 1510 1511 1513 1515 1516 1515 1517 1518 1520 1523 1524 1524
1482 1483 1480 1478 1478 1479 1478 1479 1480 1480 1479 1479 1480 1482 1484 1486 1488 1489 1490 1492 1493 1494 1494 1495 1494 1492 1496 1500 1503 1504 1507 1508 1511 1513 1514 1515 1515 1516 1518 1520 1521 1522 1524 1526
1485 1483 1480 1476 1480 1480 1479 1478 1479 1480 1481 1481 1482 1483 1484 1486 1487 1489 1490 1491 1491 1492 1492 1492 1493 1494 1495 1500 1503 1505 1508 1510 1512 1514 1516 1517 1518 1520 1521 1521 1522 1524 1527 1527